Regional Weather Roundup
Issued by NWS Lake Charles, LA

Home | Current Version | Previous Version | Text Only | Print | Product List | Glossary On
Versions: 1 2 3 4 5 6 7 8 9 10 11 12 13 14 15 16 17 18 19 20 21 22 23 24 25 26 27
000
ASUS44 KLCH 200910
RWRLCH
REGIONAL WEATHER ROUNDUP
NATIONAL WEATHER SERVICE LAKE CHARLES LA
300 AM CST MON FEB 20 2017

Note: "fair" indicates few or no clouds below 12,000 feet with no
significant weather and/or obstructions to visibility.


ACROSS SOUTHEAST TEXAS

CITY           SKY/WX    TMP DP  RH WIND       PRES   REMARKS
BEAUMONT       CLOUDY    70  67  90 SE16G24   29.91F
BEAUMONT CITY  CLOUDY    71  67  85 SE12G18   29.94R
ORANGE         CLOUDY    70  68  94 SE14G21   29.95S
JASPER         CLOUDY    73  67  83 S7        29.97R
$$

ACROSS CENTRAL LOUISIANA

CITY           SKY/WX    TMP DP  RH WIND       PRES   REMARKS
LEESVILLE      CLOUDY    70  67  90 SE13      29.92F
FULLERTON      CLOUDY    70  66  87 VRB3      29.91F
ALEXANDRIA INT CLOUDY    68  64  87 SE12      29.95F
ESLER FIELD    CLOUDY    67  65  93 SE6       29.98F
DERIDDER       CLOUDY    71  68  92 SE9G18    29.95F
OAKDALE        CLOUDY    70  66  88 SE6       29.95F
OPELOUSAS      CLOUDY    68  65  88 MISG      29.98F
$$

ACROSS SOUTHWEST AND SOUTH CENTRAL LOUISIANA

CITY           SKY/WX    TMP DP  RH WIND       PRES   REMARKS
SULPHUR        CLOUDY    71  68  90 SE13G23   29.94F
LAKE CHARLES   CLOUDY    70  67  90 SE20G28   29.93F
CHENNAULT INT  CLOUDY    68  67  96 SE13      29.94F
CAMERON PHI    FOG       68  68 100 SE16G23   29.92F VSB 1/4
DEQUINCY       CLOUDY    70  66  88 SE10G21   29.94S
JENNINGS       CLOUDY    69  67  92 SE12      29.96F
LAFAYETTE      CLOUDY    72  68  87 SE6       29.99F
NEW IBERIA     CLOUDY    70  66  87 SE10      30.00F
ABBEVILLE      CLOUDY    70  70 100 SE13G21   29.98F FOG
PATTERSON      CLOUDY    69  68  96 SE9       30.02S
SALT POINT       N/A     69  67  93 SE9       30.00R
$$

SELECTED SITES ACROSS THE REGION

CITY           SKY/WX    TMP DP  RH WIND       PRES   REMARKS
HOUSTON BUSH   CLOUDY    70  68  93 SE7       29.90R
HOUSTON HOBBY  CLOUDY    72  68  87 SE12G17   29.89S
GALVESTON      CLOUDY    71  69  93 SE13      29.90R
COLLEGE STAT   TSTM      58  57  97 N15       29.93F FOG
CONROE         CLOUDY    69  67  93 S9        29.91R
HUNTSVILLE     CLOUDY    71  66  84 CALM      29.94R
LUFKIN         CLOUDY    70  66  87 SE13      29.92R
SHREVEPORT     CLOUDY    68  64  87 SE8       29.93S
MONROE         MOCLDY    65  58  78 S8        30.00F
NATCHEZ MS     CLOUDY    64  59  82 SE10G17   30.02F
BATON ROUGE    CLOUDY    68  66  93 SE12G20   30.02F
N.O. INTL ARPT MOCLDY    66  66 100 S7        30.03S
SLIDELL        MOCLDY    66  65  96 SE3       30.04S
$$

MARINE REPORTS

STATION/POSITION TIME  SKY/WX   TEMP    WIND        PRES    VSBY
                                AIR SEA DIR/SP/G
                 (UTC)          (F)     (DEG/KT/KT) (MB)    (MI)
BUOY 30 S HIGH I 0850            67 64  140/ 12/ 14 1011.8F
WVE H/P(F/S)=  5/ 6

SEA RIM ST PARK  0900            67     130/ 11/ 16 1013.2F
PORT ARTHUR      0848               65  140/  8/ 13 1013.2F
SABINE PASS N    0848            67 68  130/ 17/ 22 1013.9F
TEXAS POINT      NOT AVBL
CALCASIEU PASS   0848            67 67  140/ 14/ 18   N/A
LK CHARLES BEACH 0848            70 64              1014.0F
MARSH ISLAND     0800            67                   N/A
FRESH WATER LOCK 0848            66 66  100/ 10/ 13 1015.4F
AMERADA PASS     0842            69 59  110/  5/  8 1016.4R
$$




USA.gov is the U.S. government's official web portal to all federal, state and local government web resources and services.